Location: Lake Arresoe
(56.0000°N, 12.5000°E)
Time: 11:14:33
(UTC+02:00)

FENGYUN 1C DEB - Pass Details

Date: 30 January 2022
Orbit: 673 x 853 km, 98.9° (Epoch: 15 May)

Event Time Altitude Azimuth Distance (km) Brightness Sun altitude
Rises 05:57:35 0° 157° (SSE) 3,020 ? -18.1°
Reaches altitude 10° 05:59:46 10° 156° (SSE) 2,116 ? -17.8°
Maximum altitude 06:04:23 79° 71° (ENE) 711 ? -17.2°
Drops below altitude 10° 06:09:10 10° 345° (NNW) 2,200 ? -16.5°
Sets 06:11:29 0° 344° (NNW) 3,149 ? -16.2°
